ABS-2A (MONGOLSAT-1) (41588 NORAD) Tracking and Keplerian Element Data

This shows tracking and keplerian element data for the satellite.

Feedback or suggestion? Click here.




ElementValue
Catalog41588
NameABS-2A (MONGOLSAT-1)
Epoch Orbit1941
Epoch Day270.11993924
Epoch Year2021
RAAN182.1073
Inclination0.0189
Eccentricity0.0001725
Argument of Perigee273.4999
Mean Anonmoly28.4187
Mean Motion1.00270028
Decay Rate-8.5E-07
L11 41588U 16038A 21270.11993924 -.00000085 00000-0 00000+0 0 9997
L22 41588 0.0189 182.1073 0001725 273.4999 28.4187 1.00270028 19411

Live tracking and technical data element details for ABS-2A (MONGOLSAT-1) (NORAD 41588). ABS-2A (MONGOLSAT-1) can be tracked NOW for your location showing map with azimuth and elevation plus other details from your city location.

Track the satellite on the map from your city or location and see movement details for azimuth, elevation, latitude, longitude, range, height, and movement on the map or in text.







IsCatalogInMostPopularTable: catalog: 41588, numindb: 584
Update: records affected: 1



GetName: 41588 ABS-2A (MONGOLSAT-1)

Hit Count: updated at: Mon, 27 Sep 2021 23:04:56 GMT